Weather History for Minchumina, AK

Change the Weather History Date:

Friday, June 14, 2013

  Actual Average Record
Temperature  
Mean Temperature 64 °F -  
Max Temperature 80 °F 64 °F 80 °F (2013)
Min Temperature 48 °F 47 °F 39 °F (2001)
Degree Days  
Heating Degree Days 1    
Growing Degree Days 14 (Base 50)    
Moisture  
Dew Point 38 °F    
Average Humidity 39    
Maximum Humidity 82    
Minimum Humidity 18    
Precipitation  
Precipitation 0.00 in - - ()
Sea Level Pressure  
Sea Level Pressure 30.13 in    
Wind  
Wind Speed 0 mph (SSE)    
Max Wind Speed 8 mph    
Max Gust Speed -    
Visibility 10 miles    
Events      
Averages and records for this station are not official NWS values.
T = Trace of Precipitation, MM = Missing Value Source: NWS Daily Summary

Daily Weather History Graph

Daily Weather History Graph

Search for Another Location

Airport:

Trip Planner

Search our weather history database for the weather conditions in past years. The results will help you decide how hot, cold, wet, or windy it might be!

Date:

Astronomy

Jun. 14, 2013 Rise Set
Actual Time 3:45 AM AKDT 12:34 AM AKDT
Civil Twilight Sun does not rise Sun does not rise
Nautical Twilight Sun does not rise Sun does not rise
Astronomical Twilight Sun does not rise Sun does not rise
Moon 11:54 AM AKDT (6/14) 1:30 AM AKDT (6/14)
Length of Visible Light 24h 00m
Length of Day
20h 49m
Waxing Crescent, 31% of the Moon is Illuminated
Jun 14
Waxing Crescent
Jun 16
First Quarter
Jun 23
Full
Jun 29
Last Quarter
Jul 7
New

Hourly Weather History & Observations

Time (AKDT) Temp. Dew Point Humidity Pressure Visibility Wind Dir Wind Speed Gust Speed Precip Events Conditions
12:16 AM 60.8 °F 32.0 °F 34% 30.07 in 10.0 mi Calm Calm - N/A   Clear
12:36 AM 60.8 °F 32.0 °F 34% 30.07 in 10.0 mi Calm Calm - N/A   Clear
12:56 AM 60.8 °F 33.8 °F 36% 30.07 in 10.0 mi Calm Calm - N/A   Clear
1:16 AM 60.8 °F 33.8 °F 36% 30.07 in 10.0 mi Calm Calm - N/A   Clear
1:36 AM 60.8 °F 33.8 °F 36% 30.07 in 10.0 mi Calm Calm - N/A   Clear
1:56 AM 57.2 °F 37.4 °F 48% 30.08 in 10.0 mi Calm Calm - N/A   Clear
2:16 AM 55.4 °F 37.4 °F 51% 30.08 in 10.0 mi Calm Calm - N/A   Clear
2:36 AM 57.2 °F 33.8 °F 41% 30.08 in 10.0 mi Calm Calm - N/A   Clear
2:56 AM 55.4 °F 33.8 °F 44% 30.09 in 10.0 mi Calm Calm - N/A   Clear
3:16 AM 55.4 °F 33.8 °F 44% 30.09 in 10.0 mi Calm Calm - N/A   Clear
3:36 AM 53.6 °F 33.8 °F 47% 30.10 in 10.0 mi Calm Calm - N/A   Clear
3:56 AM 51.8 °F 42.8 °F 71% 30.10 in 10.0 mi Calm Calm - N/A   Clear
4:16 AM 48.2 °F 42.8 °F 82% 30.11 in 10.0 mi Calm Calm - N/A   Clear
4:36 AM 48.2 °F 37.4 °F 66% 30.11 in 10.0 mi Calm Calm - N/A   Clear
4:56 AM 50.0 °F 37.4 °F 62% 30.11 in 10.0 mi Calm Calm - N/A   Clear
5:16 AM 48.2 °F 37.4 °F 66% 30.11 in 10.0 mi Calm Calm - N/A   Clear
5:36 AM 48.2 °F 37.4 °F 66% 30.11 in 10.0 mi Calm Calm - N/A   Clear
5:56 AM 48.2 °F 42.8 °F 82% 30.12 in 10.0 mi Calm Calm - N/A   Clear
6:16 AM 50.0 °F 42.8 °F 76% 30.13 in 10.0 mi Calm Calm - N/A   Clear
6:36 AM 50.0 °F 44.6 °F 82% 30.13 in 10.0 mi Calm Calm - N/A   Clear
6:56 AM 51.8 °F 42.8 °F 71% 30.13 in 10.0 mi Calm Calm - N/A   Clear
7:16 AM 51.8 °F 44.6 °F 76% 30.14 in 10.0 mi Calm Calm - N/A   Clear
7:36 AM 53.6 °F 44.6 °F 72% 30.14 in 10.0 mi Calm Calm - N/A   Clear
7:56 AM 53.6 °F 44.6 °F 72% 30.15 in 10.0 mi Calm Calm - N/A   Clear
8:16 AM 55.4 °F 42.8 °F 63% 30.15 in 10.0 mi Calm Calm - N/A   Clear
8:36 AM 57.2 °F 42.8 °F 59% 30.15 in 10.0 mi Calm Calm - N/A   Clear
8:56 AM 57.2 °F 39.2 °F 51% 30.15 in 10.0 mi Calm Calm - N/A   Clear
9:16 AM 60.8 °F 39.2 °F 45% 30.15 in 10.0 mi Calm Calm - N/A   Clear
9:36 AM 62.6 °F 39.2 °F 42% 30.15 in 10.0 mi Calm Calm - N/A   Clear
9:56 AM 64.4 °F 37.4 °F 37% 30.15 in 10.0 mi Calm Calm - N/A   Clear
10:16 AM 66.2 °F 39.2 °F 37% 30.15 in 10.0 mi ESE 3.5 mph - N/A   Clear
10:36 AM 68.0 °F 39.2 °F 35% 30.15 in 10.0 mi Calm Calm - N/A   Clear
10:56 AM 69.8 °F 39.2 °F 33% 30.15 in 10.0 mi Calm Calm - N/A   Clear
11:16 AM 69.8 °F 39.2 °F 33% 30.15 in 10.0 mi Calm Calm - N/A   Clear
11:36 AM 71.6 °F 39.2 °F 31% 30.15 in 10.0 mi SSE 3.5 mph - N/A   Clear
11:56 AM 71.6 °F 37.4 °F 29% 30.15 in 10.0 mi Calm Calm - N/A   Clear
12:16 PM 73.4 °F 41.0 °F 31% 30.15 in 9.0 mi Calm Calm - N/A   Clear
12:36 PM 75.2 °F 39.2 °F 27% 30.15 in 10.0 mi Calm Calm - N/A   Clear
12:56 PM 75.2 °F 39.2 °F 27% 30.15 in 10.0 mi Calm Calm - N/A   Clear
1:16 PM 75.2 °F 35.6 °F 24% 30.15 in 10.0 mi Calm Calm - N/A   Clear
1:36 PM 77.0 °F 35.6 °F 22% 30.15 in 10.0 mi ESE 4.6 mph - N/A   Clear
1:56 PM 77.0 °F 35.6 °F 22% 30.15 in 10.0 mi Calm Calm - N/A   Clear
2:16 PM 77.0 °F 35.6 °F 22% 30.14 in 10.0 mi East 5.8 mph - N/A   Clear
2:36 PM 78.8 °F 33.8 °F 20% 30.14 in 10.0 mi Calm Calm - N/A   Clear
2:56 PM 78.8 °F 33.8 °F 20% 30.14 in 10.0 mi East 4.6 mph - N/A   Clear
3:16 PM 78.8 °F 33.8 °F 20% 30.13 in 10.0 mi ESE 5.8 mph - N/A   Clear
3:36 PM 80.6 °F 35.6 °F 20% 30.13 in 10.0 mi Calm Calm - N/A   Clear
3:56 PM 80.6 °F 33.8 °F 18% 30.12 in 10.0 mi Calm Calm - N/A   Clear
4:16 PM 80.6 °F 33.8 °F 18% 30.12 in 10.0 mi Calm Calm - N/A   Clear
4:36 PM 80.6 °F 33.8 °F 18% 30.11 in 10.0 mi Calm Calm - N/A   Clear
4:56 PM 78.8 °F 33.8 °F 20% 30.12 in 10.0 mi Calm Calm - N/A   Clear
5:16 PM 77.0 °F 35.6 °F 22% 30.12 in 10.0 mi Calm Calm - N/A   Clear
5:36 PM 80.6 °F 33.8 °F 18% 30.12 in 10.0 mi SSE 3.5 mph - N/A   Clear
5:56 PM 78.8 °F 35.6 °F 21% 30.12 in 10.0 mi Calm Calm - N/A   Partly Cloudy
6:16 PM 78.8 °F 33.8 °F 20% 30.12 in 10.0 mi SE 4.6 mph - N/A   Scattered Clouds
6:36 PM 75.2 °F 37.4 °F 25% 30.12 in 10.0 mi Calm Calm - N/A   Mostly Cloudy
6:56 PM 75.2 °F 39.2 °F 27% 30.11 in 10.0 mi Calm Calm - N/A   Overcast
7:16 PM 78.8 °F 39.2 °F 24% 30.12 in 10.0 mi SSW 8.1 mph - N/A   Overcast
7:36 PM 78.8 °F 41.0 °F 26% 30.12 in 10.0 mi SSW 5.8 mph - N/A   Overcast
7:56 PM 77.0 °F 42.8 °F 29% 30.12 in 10.0 mi Calm Calm - N/A   Mostly Cloudy
8:16 PM 78.8 °F 39.2 °F 24% 30.12 in 10.0 mi WSW 4.6 mph - N/A   Scattered Clouds
8:36 PM 77.0 °F 41.0 °F 28% 30.13 in 10.0 mi West 3.5 mph - N/A   Partly Cloudy
8:56 PM 77.0 °F 41.0 °F 28% 30.13 in 10.0 mi Calm Calm - N/A   Clear
9:16 PM 75.2 °F 41.0 °F 29% 30.13 in 10.0 mi Calm Calm - N/A   Scattered Clouds
9:36 PM 75.2 °F 41.0 °F 29% 30.13 in 10.0 mi Calm Calm - N/A   Partly Cloudy
9:56 PM 73.4 °F 41.0 °F 31% 30.14 in 10.0 mi Calm Calm - N/A   Scattered Clouds
10:16 PM 73.4 °F 41.0 °F 31% 30.14 in 10.0 mi Calm Calm - N/A   Partly Cloudy
10:36 PM 71.6 °F 39.2 °F 31% 30.14 in 10.0 mi Calm Calm - N/A   Clear
10:56 PM 69.8 °F 41.0 °F 35% 30.15 in 10.0 mi Calm Calm - N/A   Mostly Cloudy
11:16 PM 69.8 °F 39.2 °F 33% 30.15 in 10.0 mi Calm Calm - N/A   Scattered Clouds
11:36 PM 69.8 °F 39.2 °F 33% 30.15 in 10.0 mi Calm Calm - N/A   Partly Cloudy
11:56 PM 66.2 °F 44.6 °F 46% 30.16 in 10.0 mi Calm Calm - N/A   Clear